• In Belgien
  • Länderverzeichnis
  • Für 7 Tage
  • Wassertemperatur
  • Satellitenkarten
  • Wetterkarte
  • Widgets
  • user-avatar
    Anmelden

    Stündliche Wetter Julara

    Heute, 22 November, Mittwoch

    Zeit Temperatur Niederschläge Wind Luftdruck Luftfeuchtigkeit
    00:00 +32°C° 0 mm 5 m/S 713 mmHg 14%
    01:00 +30°C° 0 mm 5 m/S 713 mmHg 15%
    02:00 +30°C° 0 mm 4 m/S 712 mmHg 15%
    03:00 +29°C° 0 mm 4 m/S 712 mmHg 15%
    04:00 +29°C° 0 mm 4 m/S 712 mmHg 17%
    05:00 +29°C° 0 mm 5 m/S 713 mmHg 19%
    06:00 +28°C° 0 mm 5 m/S 713 mmHg 21%
    07:00 +30°C° 0 mm 5 m/S 713 mmHg 21%
    08:00 +33°C° 0 mm 5 m/S 714 mmHg 20%
    09:00 +34°C° 0 mm 5 m/S 715 mmHg 25%
    10:00 +36°C° 0 mm 4 m/S 714 mmHg 22%
    11:00 +37°C° 0 mm 4 m/S 714 mmHg 19%
    12:00 +38°C° 0 mm 3 m/S 714 mmHg 16%
    13:00 +39°C° 0 mm 3 m/S 713 mmHg 15%
    14:00 +39°C° 0 mm 3 m/S 713 mmHg 14%
    15:00 +40°C° 0 mm 3 m/S 712 mmHg 13%
    16:00 +40°C° 0 mm 4 m/S 712 mmHg 14%
    17:00 +40°C° 0 mm 5 m/S 712 mmHg 15%
    18:00 +40°C° 0 mm 6 m/S 712 mmHg 16%
    19:00 +38°C° 0 mm 7 m/S 712 mmHg 19%
    20:00 +35°C° 0 mm 8 m/S 713 mmHg 22%
    21:00 +34°C° 0 mm 9 m/S 713 mmHg 25%
    22:00 +32°C° 0 mm 10 m/S 713 mmHg 29%
    23:00 +31°C° 0 mm 10 m/S 713 mmHg 33%

    Morgen, 23 November, Donnerstag

    Zeit Temperatur Niederschläge Wind Luftdruck Luftfeuchtigkeit
    00:00 +29°C° 0 mm 11 m/S 714 mmHg 37%
    01:00 +27°C° 0 mm 10 m/S 714 mmHg 41%
    02:00 +26°C° 0 mm 10 m/S 714 mmHg 45%
    03:00 +23°C° 0 mm 10 m/S 714 mmHg 49%
    04:00 +23°C° 0 mm 9 m/S 714 mmHg 49%
    05:00 +22°C° 0 mm 9 m/S 715 mmHg 49%
    06:00 +22°C° 0 mm 8 m/S 715 mmHg 49%
    07:00 +24°C° 0 mm 8 m/S 715 mmHg 43%
    08:00 +26°C° 0 mm 8 m/S 716 mmHg 38%
    09:00 +27°C° 0 mm 8 m/S 716 mmHg 33%
    10:00 +29°C° 0 mm 7 m/S 716 mmHg 30%
    11:00 +30°C° 0 mm 6 m/S 716 mmHg 27%
    12:00 +33°C° 0 mm 6 m/S 715 mmHg 25%
    13:00 +34°C° 0 mm 5 m/S 715 mmHg 23%
    14:00 +34°C° 0 mm 4 m/S 714 mmHg 22%
    15:00 +35°C° 0 mm 3 m/S 714 mmHg 21%
    16:00 +35°C° 0 mm 4 m/S 713 mmHg 21%
    17:00 +35°C° 0 mm 4 m/S 713 mmHg 20%
    18:00 +35°C° 0 mm 5 m/S 713 mmHg 20%
    19:00 +34°C° 0 mm 6 m/S 714 mmHg 21%
    20:00 +32°C° 0 mm 7 m/S 714 mmHg 22%
    21:00 +31°C° 0 mm 8 m/S 714 mmHg 23%
    22:00 +29°C° 0 mm 8 m/S 714 mmHg 25%
    23:00 +28°C° 0 mm 8 m/S 715 mmHg 27%

    übermorgen, 24 November, Freitag

    Zeit Temperatur Niederschläge Wind Luftdruck Luftfeuchtigkeit
    00:00 +27°C° 0 mm 8 m/S 715 mmHg 29%
    01:00 +26°C° 0 mm 8 m/S 715 mmHg 33%
    02:00 +26°C° 0 mm 8 m/S 715 mmHg 38%
    03:00 +24°C° 0 mm 8 m/S 715 mmHg 42%
    04:00 +23°C° 0 mm 7 m/S 715 mmHg 46%
    05:00 +23°C° 0 mm 7 m/S 715 mmHg 49%
    06:00 +22°C° 0 mm 7 m/S 716 mmHg 52%
    07:00 +24°C° 0 mm 7 m/S 716 mmHg 47%
    08:00 +26°C° 0 mm 7 m/S 716 mmHg 41%
    09:00 +28°C° 0 mm 7 m/S 717 mmHg 36%
    10:00 +30°C° 0 mm 6 m/S 716 mmHg 33%
    11:00 +33°C° 0 mm 6 m/S 716 mmHg 29%
    12:00 +35°C° 0 mm 5 m/S 716 mmHg 26%
    13:00 +36°C° 0 mm 4 m/S 715 mmHg 24%
    14:00 +36°C° 0 mm 3 m/S 714 mmHg 22%
    15:00 +37°C° 0 mm 2 m/S 713 mmHg 20%
    16:00 +37°C° 0 mm 2 m/S 713 mmHg 19%
    17:00 +37°C° 0 mm 3 m/S 713 mmHg 19%
    18:00 +37°C° 0 mm 3 m/S 713 mmHg 19%
    19:00 +36°C° 0 mm 3 m/S 713 mmHg 21%
    20:00 +35°C° 0 mm 4 m/S 714 mmHg 23%
    21:00 +34°C° 0 mm 4 m/S 714 mmHg 25%
    22:00 +34°C° 0 mm 5 m/S 714 mmHg 26%
    23:00 +33°C° 0 mm 6 m/S 714 mmHg 27%

    25 November, Samstag

    Zeit Temperatur Niederschläge Wind Luftdruck Luftfeuchtigkeit
    00:00 +33°C° 0 mm 7 m/S 714 mmHg 28%
    01:00 +32°C° 0,1 mm 7 m/S 714 mmHg 29%
    02:00 +32°C° 0,1 mm 6 m/S 713 mmHg 30%
    03:00 +30°C° 0,1 mm 6 m/S 713 mmHg 31%
    04:00 +30°C° 0,1 mm 6 m/S 713 mmHg 34%
    05:00 +29°C° 0,1 mm 6 m/S 714 mmHg 36%
    06:00 +29°C° 0,1 mm 6 m/S 714 mmHg 38%
    07:00 +30°C° 0 mm 6 m/S 714 mmHg 38%
    08:00 +32°C° 0 mm 7 m/S 715 mmHg 38%
    09:00 +34°C° 0 mm 8 m/S 715 mmHg 39%
    10:00 +35°C° 0 mm 7 m/S 715 mmHg 35%
    11:00 +36°C° 0 mm 7 m/S 714 mmHg 31%
    12:00 +38°C° 0 mm 7 m/S 714 mmHg 28%
    13:00 +39°C° 0 mm 7 m/S 713 mmHg 26%
    14:00 +40°C° 0 mm 7 m/S 713 mmHg 24%
    15:00 +40°C° 0 mm 7 m/S 712 mmHg 22%
    16:00 +39°C° 0 mm 7 m/S 712 mmHg 25%
    17:00 +38°C° 0 mm 8 m/S 713 mmHg 27%
    18:00 +37°C° 0 mm 8 m/S 713 mmHg 29%
    19:00 +34°C° 2,8 mm 8 m/S 713 mmHg 39%
    20:00 +31°C° 2,8 mm 8 m/S 714 mmHg 49%
    21:00 +27°C° 2,8 mm 9 m/S 714 mmHg 59%
    22:00 +27°C° 0,8 mm 7 m/S 714 mmHg 57%
    23:00 +28°C° 0,8 mm 5 m/S 714 mmHg 54%

    26 November, Sonntag

    Zeit Temperatur Niederschläge Wind Luftdruck Luftfeuchtigkeit
    00:00 +28°C° 0,8 mm 3 m/S 714 mmHg 52%
    01:00 +28°C° 0 mm 4 m/S 714 mmHg 55%
    02:00 +27°C° 0 mm 4 m/S 714 mmHg 59%
    03:00 +27°C° 0 mm 5 m/S 714 mmHg 63%
    04:00 +27°C° 0 mm 4 m/S 714 mmHg 64%
    05:00 +26°C° 0 mm 4 m/S 714 mmHg 66%
    06:00 +26°C° 0 mm 4 m/S 715 mmHg 68%
    07:00 +27°C° 0 mm 4 m/S 715 mmHg 64%
    08:00 +28°C° 0 mm 4 m/S 716 mmHg 61%
    09:00 +29°C° 0 mm 4 m/S 716 mmHg 57%
    10:00 +30°C° 0 mm 3 m/S 716 mmHg 53%
    11:00 +31°C° 0 mm 3 m/S 715 mmHg 49%
    12:00 +32°C° 0 mm 2 m/S 715 mmHg 45%
    13:00 +32°C° 0 mm 2 m/S 715 mmHg 42%
    14:00 +34°C° 0 mm 2 m/S 714 mmHg 39%
    15:00 +35°C° 0 mm 2 m/S 714 mmHg 35%
    16:00 +34°C° 0,1 mm 2 m/S 714 mmHg 36%
    17:00 +34°C° 0,1 mm 3 m/S 714 mmHg 37%
    18:00 +34°C° 0,1 mm 4 m/S 714 mmHg 37%
    19:00 +33°C° 0,2 mm 5 m/S 714 mmHg 40%
    20:00 +32°C° 0,2 mm 5 m/S 714 mmHg 43%
    21:00 +32°C° 0,2 mm 6 m/S 714 mmHg 46%
    22:00 +30°C° 0,4 mm 7 m/S 714 mmHg 50%
    23:00 +29°C° 0,4 mm 8 m/S 714 mmHg 54%

    27 November, Montag

    Zeit Temperatur Niederschläge Wind Luftdruck Luftfeuchtigkeit
    00:00 +28°C° 0,4 mm 9 m/S 714 mmHg 58%
    01:00 +27°C° 2,7 mm 8 m/S 714 mmHg 63%
    02:00 +24°C° 2,7 mm 8 m/S 714 mmHg 68%
    03:00 +23°C° 2,7 mm 7 m/S 714 mmHg 73%
    04:00 +23°C° 1,6 mm 7 m/S 714 mmHg 74%
    05:00 +22°C° 1,6 mm 6 m/S 715 mmHg 75%
    06:00 +22°C° 1,6 mm 5 m/S 715 mmHg 76%
    07:00 +23°C° 0 mm 5 m/S 715 mmHg 72%
    08:00 +24°C° 0 mm 6 m/S 715 mmHg 67%
    09:00 +26°C° 0 mm 6 m/S 715 mmHg 63%
    10:00 +28°C° 0 mm 5 m/S 715 mmHg 57%
    11:00 +30°C° 0 mm 5 m/S 715 mmHg 50%
    12:00 +32°C° 0 mm 5 m/S 714 mmHg 43%
    13:00 +33°C° 0 mm 4 m/S 714 mmHg 41%
    14:00 +33°C° 0 mm 4 m/S 713 mmHg 38%
    15:00 +34°C° 0 mm 4 m/S 712 mmHg 36%
    16:00 +34°C° 0 mm 4 m/S 713 mmHg 36%
    17:00 +34°C° 0 mm 4 m/S 713 mmHg 36%
    18:00 +34°C° 0 mm 4 m/S 713 mmHg 36%
    19:00 +33°C° 0 mm 5 m/S 713 mmHg 39%
    20:00 +32°C° 0 mm 6 m/S 714 mmHg 41%
    21:00 +32°C° 0 mm 6 m/S 714 mmHg 43%
    22:00 +30°C° 0 mm 6 m/S 714 mmHg 46%
    23:00 +29°C° 0 mm 6 m/S 714 mmHg 49%
    Mehr zeigen